TimeMST,TemperatureF,Dew PointF,Humidity,Sea Level PressureIn,VisibilityMPH,Wind Direction,Wind SpeedMPH,Gust SpeedMPH,PrecipitationIn,Events,Conditions,WindDirDegrees,DateUTC
12:15 AM,26.6,3.2,37,30.11,10.0,Calm,Calm,-,N/A,,Clear,0,2013-01-07 07:15:00
12:55 AM,24.8,3.2,40,30.10,10.0,Calm,Calm,-,N/A,,Partly Cloudy,0,2013-01-07 07:55:00
1:15 AM,24.8,3.2,40,30.10,10.0,Calm,Calm,-,N/A,,Clear,0,2013-01-07 08:15:00
1:35 AM,24.8,1.4,36,30.09,10.0,Calm,Calm,-,N/A,,Partly Cloudy,0,2013-01-07 08:35:00
1:55 AM,26.6,3.2,37,30.09,10.0,Calm,Calm,-,N/A,,Clear,0,2013-01-07 08:55:00
2:15 AM,24.8,3.2,40,30.09,10.0,Calm,Calm,-,N/A,,Clear,0,2013-01-07 09:15:00
2:35 AM,26.6,3.2,37,30.10,10.0,Calm,Calm,-,N/A,,Clear,0,2013-01-07 09:35:00
2:55 AM,26.6,5.0,40,30.10,10.0,Calm,Calm,-,N/A,,Clear,0,2013-01-07 09:55:00
3:15 AM,26.6,5.0,40,30.09,10.0,Calm,Calm,-,N/A,,Scattered Clouds,0,2013-01-07 10:15:00
3:35 AM,26.6,5.0,40,30.09,10.0,NNE,5.8,-,N/A,,Partly Cloudy,30,2013-01-07 10:35:00
3:55 AM,26.6,5.0,40,30.07,10.0,NE,6.9,-,N/A,,Clear,50,2013-01-07 10:55:00
4:15 AM,24.8,5.0,43,30.06,10.0,Calm,Calm,-,N/A,,Clear,0,2013-01-07 11:15:00
4:35 AM,24.8,6.8,46,30.06,10.0,Calm,Calm,-,N/A,,Partly Cloudy,0,2013-01-07 11:35:00
5:50 AM,24.8,5.0,43,30.06,10.0,Calm,Calm,-,N/A,,Mostly Cloudy,0,2013-01-07 12:50:00
6:50 AM,23.0,5.0,46,30.07,10.0,Calm,Calm,-,N/A,,Mostly Cloudy,0,2013-01-07 13:50:00
7:50 AM,23.0,5.0,46,30.06,10.0,Calm,Calm,-,N/A,,Mostly Cloudy,0,2013-01-07 14:50:00
8:50 AM,28.4,6.8,40,30.07,10.0,Calm,Calm,-,N/A,,Mostly Cloudy,0,2013-01-07 15:50:00
9:50 AM,33.8,8.6,35,30.08,10.0,NNE,9.2,-,N/A,,Mostly Cloudy,20,2013-01-07 16:50:00
10:50 AM,35.6,8.6,33,30.06,10.0,NNE,6.9,-,N/A,,Mostly Cloudy,30,2013-01-07 17:50:00
11:50 AM,39.2,8.6,28,30.02,10.0,NE,8.1,-,N/A,,Mostly Cloudy,40,2013-01-07 18:50:00
12:50 PM,39.2,10.4,31,29.99,10.0,Calm,Calm,-,N/A,,Mostly Cloudy,0,2013-01-07 19:50:00
1:50 PM,41.0,10.4,29,29.97,10.0,Calm,Calm,-,N/A,,Mostly Cloudy,0,2013-01-07 20:50:00
2:50 PM,41.0,12.2,31,29.96,10.0,Calm,Calm,-,N/A,,Mostly Cloudy,0,2013-01-07 21:50:00
3:50 PM,44.6,12.2,27,29.96,10.0,Calm,Calm,-,N/A,,Scattered Clouds,0,2013-01-07 22:50:00
4:50 PM,39.2,10.4,31,29.97,10.0,Calm,Calm,-,N/A,,Scattered Clouds,0,2013-01-07 23:50:00
5:50 PM,32.0,8.6,38,29.98,10.0,Calm,Calm,-,N/A,,Scattered Clouds,0,2013-01-08 00:50:00
6:50 PM,28.4,8.6,43,29.98,10.0,NW,6.9,-,N/A,,Clear,320,2013-01-08 01:50:00
7:50 PM,26.6,10.4,51,29.97,10.0,NNW,9.2,-,N/A,,Clear,330,2013-01-08 02:50:00
8:50 PM,26.6,10.4,51,29.98,10.0,Calm,Calm,-,N/A,,Clear,0,2013-01-08 03:50:00
9:15 PM,24.8,8.6,50,29.97,10.0,Calm,Calm,-,N/A,,Clear,0,2013-01-08 04:15:00
9:35 PM,24.8,8.6,50,29.97,10.0,Calm,Calm,-,N/A,,Clear,0,2013-01-08 04:35:00
9:50 PM,24.8,8.6,50,29.97,10.0,Calm,Calm,-,N/A,,Clear,0,2013-01-08 04:50:00
9:55 PM,23.0,8.6,54,29.97,10.0,NNW,6.9,-,N/A,,Clear,340,2013-01-08 04:55:00
10:15 PM,23.0,8.6,54,29.96,10.0,North,8.1,-,N/A,,Clear,350,2013-01-08 05:15:00
10:35 PM,23.0,8.6,54,29.96,10.0,North,9.2,-,N/A,,Clear,10,2013-01-08 05:35:00
10:55 PM,23.0,10.4,59,29.95,10.0,North,8.1,-,N/A,,Clear,350,2013-01-08 05:55:00
11:15 PM,21.2,8.6,58,29.95,10.0,North,10.4,-,N/A,,Clear,360,2013-01-08 06:15:00
11:35 PM,23.0,10.4,59,29.96,10.0,North,6.9,-,N/A,,Clear,350,2013-01-08 06:35:00
11:55 PM,23.0,10.4,59,29.96,10.0,Calm,Calm,-,N/A,,Clear,0,2013-01-08 06:55:00